W1GK Weather Reports


time (UTC)temp
C
wind
direction
speed
KPH
gust
KPH
rain 1hr
cm
rain 24hr
cm
rain mn
cm
humidity
%
barometer
mb
20260502162000 23 11 4.8 8.0 0.00 0.00 0.00 13 1018.0
20260502161001 23 24 3.2 8.0 0.00 0.00 0.00 13 1018.0
20260502152000 21 34 3.2 6.4 0.00 0.00 0.00 14 1017.7
20260502151001 21 11 3.2 8.0 0.00 0.00 0.00 14 1017.6
20260502122959 15 344 0.0 3.2 0.00 0.00 0.00 17 1016.3
20260502121958 15 344 1.6 4.8 0.00 0.00 0.00 17 1016.3
20260502121000 15 348 3.2 3.2 0.00 0.00 0.00 17 1016.2
20260502115000 15 112 0.0 3.2 0.00 0.00 0.00 17 1016.1
20260502113959 15 132 0.0 4.8 0.00 0.00 0.00 16 1016.1
20260502113001 15 96 0.0 4.8 0.00 0.00 0.00 16 1016.1
20260502112000 15 113 3.2 4.8 0.00 0.00 0.00 16 1016.1
20260502111001 15 98 1.6 3.2 0.00 0.00 0.00 16 1016.1
20260502110002 15 98 1.6 4.8 0.00 0.00 0.00 16 1016.1
20260502105000 15 102 1.6 4.8 0.00 0.00 0.00 16 1016.2
20260502103959 16 60 1.6 3.2 0.00 0.00 0.00 15 1016.1
20260502102959 16 300 1.6 3.2 0.00 0.00 0.00 16 1016.1
20260502101959 16 59 0.0 3.2 0.00 0.00 0.00 15 1016.0
20260502100959 16 58 1.6 3.2 0.00 0.00 0.00 15 1016.1
20260502090959 18 39 1.6 4.8 0.00 0.00 0.00 13 1016.1
20260502071003 20 219 1.6 3.2 0.00 0.00 0.00 12 1016.1
20260502070002 21 80 0.0 3.2 0.00 0.00 0.00 11 1015.9
20260502065002 21 5 0.0 1.6 0.00 0.00 0.00 11 1015.9
20260502064002 21 5 0.0 4.8 0.00 0.00 0.00 11 1015.8
20260502063001 22 52 1.6 4.8 0.00 0.00 0.00 11 1015.7
20260502062003 22 35 3.2 11.3 0.00 0.00 0.00 11 1015.6
20260502061001 22 341 3.2 9.7 0.00 0.00 0.00 11 1015.5
20260502060002 22 329 1.6 6.4 0.00 0.00 0.00 11 1015.3
20260502055001 22 95 1.6 9.7 0.00 0.00 0.00 11 1015.3
20260502054001 22 39 1.6 8.0 0.00 0.00 0.00 12 1015.3
20260502053004 22 34 4.8 9.7 0.00 0.00 0.00 12 1015.2
20260502052002 22 322 4.8 9.7 0.00 0.00 0.00 11 1015.0
20260502051004 22 346 3.2 6.4 0.00 0.00 0.00 11 1015.0
20260502050001 22 355 4.8 6.4 0.00 0.00 0.00 11 1014.9
20260502045002 22 360 1.6 3.2 0.00 0.00 0.00 11 1014.8
20260502044001 22 9 0.0 4.8 0.00 0.00 0.00 11 1014.7
20260502043003 22 105 0.0 3.2 0.00 0.00 0.00 11 1014.6
20260502042002 23 108 1.6 1.6 0.00 0.00 0.00 11 1014.5
20260502041002 23 108 0.0 3.2 0.00 0.00 0.00 11 1014.3
20260502040004 23 108 0.0 4.8 0.00 0.00 0.00 11 1014.3
20260502035002 23 90 1.6 6.4 0.00 0.00 0.00 10 1014.1
20260502034001 23 360 0.0 4.8 0.00 0.00 0.00 10 1014.0
20260502033002 24 98 3.2 6.4 0.00 0.00 0.00 10 1013.9
20260502032002 24 78 0.0 3.2 0.00 0.00 0.00 10 1013.7
20260502031002 25 336 1.6 9.7 0.00 0.00 0.00 10 1013.5
20260502030002 25 69 1.6 9.7 0.00 0.00 0.00 9 1013.4
20260502025001 25 87 3.2 11.3 0.00 0.00 0.00 9 1013.3
20260502024003 25 37 6.4 17.7 0.00 0.00 0.00 9 1013.2
20260502023002 25 279 9.7 20.9 0.00 0.00 0.00 9 1013.1
20260502022002 25 309 8.0 16.1 0.00 0.00 0.00 9 1013.0
20260502021002 25 347 9.7 20.9 0.00 0.00 0.00 8 1012.9
20260502020002 26 128 4.8 12.9 0.00 0.00 0.00 9 1012.9
20260502015000 26 16 4.8 12.9 0.00 0.00 0.00 10 1012.7
20260502014000 26 349 4.8 12.9 0.00 0.00 0.00 10 1012.7
20260502013004 26 355 4.8 12.9 0.00 0.00 0.00 10 1012.7
20260502012001 26 5 3.2 12.9 0.00 0.00 0.00 10 1012.7
20260502011000 26 17 6.4 16.1 0.00 0.00 0.00 10 1012.7
20260502010000 27 319 4.8 12.9 0.00 0.00 0.00 11 1012.7
20260502005001 27 355 8.0 16.1 0.00 0.00 0.00 10 1012.7
20260502004000 27 344 4.8 16.1 0.00 0.00 0.00 10 1012.7
20260502003001 27 24 4.8 12.9 0.00 0.00 0.00 10 1012.6
20260502002001 27 22 6.4 16.1 0.00 0.00 0.00 10 1012.8
20260502001001 27 338 4.8 9.7 0.00 0.00 0.00 11 1012.8
20260502000000 27 36 3.2 16.1 0.00 0.00 0.00 11 1012.9
20260501235003 27 5 6.4 12.9 0.00 0.00 0.00 11 1013.0
20260501234000 26 24 9.7 20.9 0.00 0.00 0.00 11 1013.0
20260501233000 26 346 4.8 14.5 0.00 0.00 0.00 11 1013.0
20260501232002 26 336 6.4 14.5 0.00 0.00 0.00 11 1013.0
20260501231003 27 360 6.4 20.9 0.00 0.00 0.00 12 1013.0
20260501230002 27 88 6.4 20.9 0.00 0.00 0.00 11 1013.0
20260501225001 27 355 9.7 24.1 0.00 0.00 0.00 11 1013.1
20260501224001 28 326 3.2 19.3 0.00 0.00 0.00 11 1013.2
20260501223000 28 355 3.2 12.9 0.00 0.00 0.00 11 1013.3
20260501222001 28 144 3.2 9.7 0.00 0.00 0.00 10 1013.4
20260501221001 28 215 4.8 9.7 0.00 0.00 0.00 11 1013.6
20260501220003 28 331 4.8 17.7 0.00 0.00 0.00 11 1013.8
20260501215001 28 355 11.3 20.9 0.00 0.00 0.00 11 1014.0
20260501214000 28 5 6.4 19.3 0.00 0.00 0.00 11 1014.0
20260501213000 28 5 14.5 20.9 0.00 0.00 0.00 11 1014.1
20260501212000 28 340 3.2 12.9 0.00 0.00 0.00 11 1014.3
20260501211002 28 344 6.4 19.3 0.00 0.00 0.00 11 1014.5
20260501210000 27 260 4.8 19.3 0.00 0.00 0.00 12 1014.5
20260501205002 28 16 12.9 24.1 0.00 0.00 0.00 11 1014.6
20260501204001 27 259 4.8 16.1 0.00 0.00 0.00 11 1014.7
20260501203000 27 235 4.8 20.9 0.00 0.00 0.00 11 1014.7
20260501202003 28 72 6.4 14.5 0.00 0.00 0.00 11 1014.8
20260501201000 27 27 4.8 20.9 0.00 0.00 0.00 11 1014.9
20260501200002 27 317 8.0 19.3 0.00 0.00 0.00 11 1015.1
20260501195003 27 360 4.8 12.9 0.00 0.00 0.00 12 1015.2
20260501194001 27 5 8.0 17.7 0.00 0.00 0.00 12 1015.3
20260501193002 27 14 8.0 19.3 0.00 0.00 0.00 12 1015.4
20260501192001 26 12 8.0 22.5 0.00 0.00 0.00 12 1015.4
20260501191002 27 59 6.4 17.7 0.00 0.00 0.00 11 1015.6
20260501190003 26 30 9.7 19.3 0.00 0.00 0.00 12 1015.7
20260501185001 26 63 8.0 17.7 0.00 0.00 0.00 12 1015.8
20260501184002 27 115 8.0 17.7 0.00 0.00 0.00 12 1016.0
20260501183001 26 10 6.4 16.1 0.00 0.00 0.00 13 1016.1
20260501182002 26 341 8.0 14.5 0.00 0.00 0.00 13 1016.1
20260501181003 26 300 8.0 17.7 0.00 0.00 0.00 12 1016.2
20260501180001 25 360 6.4 20.9 0.00 0.00 0.00 12 1016.3
20260501175001 25 350 6.4 19.3 0.00 0.00 0.00 13 1016.4
20260501173959 24 5 6.4 17.7 0.00 0.00 0.00 13 1016.4
20260501173001 24 304 8.0 19.3 0.00 0.00 0.00 13 1016.4
20260501172000 23 360 6.4 22.5 0.00 0.00 0.00 13 1016.4
20260501171000 23 339 6.4 22.5 0.00 0.00 0.00 13 1016.4
20260501170000 23 295 6.4 20.9 0.00 0.00 0.00 13 1016.3
20260501165001 23 340 6.4 16.1 0.00 0.00 0.00 15 1016.4
20260501164000 23 355 8.0 17.7 0.00 0.00 0.00 16 1016.3
20260501162959 22 292 4.8 14.5 0.00 0.00 0.00 17 1016.3